﻿_id,日時,平均風速(m/s),平均風向,最大瞬間風速(m/s),最大風速時風向,気温(℃),湿度(%),10分間移動積算雨量(mm),1時間移動積算雨量(mm),日雨量(mm),累計雨量(mm)
1,2023-02-13T00:00:00,1.5,北西,2.9,西北西,6.1,90.2,0,0,0,0
2,2023-02-13T00:01:00,1.5,北北西,2.9,西北西,6,90,0,0,0,0
3,2023-02-13T00:02:00,1.4,北北西,2.9,西北西,6,89.8,0,0,0,0
4,2023-02-13T00:03:00,1.3,北北西,2.4,西北西,5.9,89.9,0,0,0,0
5,2023-02-13T00:04:00,1.3,北北西,2.1,北西,5.8,90,0,0,0,0
6,2023-02-13T00:05:00,1.3,北北西,1.9,北北西,5.8,90.1,0,0,0,0
7,2023-02-13T00:06:00,1.3,北北西,1.9,北北西,5.8,90.3,0,0,0,0
8,2023-02-13T00:07:00,1.4,北北西,1.9,北北西,5.8,90.7,0,0,0,0
9,2023-02-13T00:08:00,1.4,北北西,1.9,北北西,5.8,91,0,0,0,0
10,2023-02-13T00:09:00,1.5,北北西,2.2,北北西,5.8,91.3,0,0,0,0
11,2023-02-13T00:10:00,1.5,北北西,2.2,北北西,5.9,91.6,0,0,0,0
12,2023-02-13T00:11:00,1.5,北北西,2.2,北北西,6,92.1,0,0,0,0
13,2023-02-13T00:12:00,1.5,北北西,2.2,北北西,5.9,91.9,0,0,0,0
14,2023-02-13T00:13:00,1.6,北北西,2.2,北北西,6,91.5,0,0,0,0
15,2023-02-13T00:14:00,1.6,北西,2.3,西北西,5.9,91.3,0,0,0,0
16,2023-02-13T00:15:00,1.7,北西,2.3,西北西,6,91.1,0,0,0,0
17,2023-02-13T00:16:00,1.7,北西,2.3,西北西,5.9,91.1,0,0,0,0
18,2023-02-13T00:17:00,1.6,北西,2.3,西北西,5.9,91,0,0,0,0
19,2023-02-13T00:18:00,1.6,北西,2.3,西北西,6,91.2,0,0,0,0
20,2023-02-13T00:19:00,1.6,北西,2.3,西北西,6,91.2,0,0,0,0
21,2023-02-13T00:20:00,1.5,北西,2.3,西北西,6,91,0,0,0,0
22,2023-02-13T00:21:00,1.6,北西,2.6,北西,5.9,90.8,0,0,0,0
23,2023-02-13T00:22:00,1.7,北西,3,北北西,6.1,90.8,0,0,0,0
24,2023-02-13T00:23:00,1.8,北西,3.2,北,6,90.7,0,0,0,0
25,2023-02-13T00:24:00,1.8,北西,3.2,北,5.9,90.2,0,0,0,0
26,2023-02-13T00:25:00,1.8,北西,3.2,北,5.8,90.2,0,0,0,0
27,2023-02-13T00:26:00,1.8,北北西,3.2,北,5.8,90.2,0,0,0,0
28,2023-02-13T00:27:00,1.9,北北西,3.2,北,5.8,90.5,0,0,0,0
29,2023-02-13T00:28:00,1.9,北北西,3.2,北,5.8,90.8,0,0,0,0
30,2023-02-13T00:29:00,1.9,北北西,3.2,北,5.9,91.2,0,0,0,0
31,2023-02-13T00:30:00,1.7,北北西,3.2,北,6,91.5,0,0,0,0
32,2023-02-13T00:31:00,1.6,北北西,3.2,北,5.9,91.4,0,0,0,0
33,2023-02-13T00:32:00,1.4,北北西,3.2,北,5.8,91,0,0,0,0
34,2023-02-13T00:33:00,1.2,北北西,2.7,北西,6,91.3,0,0,0,0
35,2023-02-13T00:34:00,1.1,北北西,2.6,北北西,6.1,91.5,0,0,0,0
36,2023-02-13T00:35:00,0.9,北北西,2.2,北北西,6,91,0,0,0,0
37,2023-02-13T00:36:00,0.9,北北西,2.2,北北西,5.9,90.5,0,0,0,0
38,2023-02-13T00:37:00,0.8,北北西,1.8,北北西,5.8,90.3,0,0,0,0
39,2023-02-13T00:38:00,0.8,北西,1.5,北北西,5.8,90.5,0,0,0,0
40,2023-02-13T00:39:00,0.8,北西,1.5,北北西,5.8,90.6,0,0,0,0
41,2023-02-13T00:40:00,0.9,北西,1.5,北北西,5.8,90.8,0,0,0,0
42,2023-02-13T00:41:00,0.9,北西,1.5,北北西,5.8,91.3,0,0,0,0
43,2023-02-13T00:42:00,0.9,北西,1.5,北北西,5.8,91.5,0,0,0,0
44,2023-02-13T00:43:00,1,北西,1.5,北北西,5.8,91.4,0,0,0,0
45,2023-02-13T00:44:00,1,北西,1.5,北北西,5.7,91.5,0,0,0,0
46,2023-02-13T00:45:00,1.1,北西,1.5,北北西,5.7,91.7,0,0,0,0
47,2023-02-13T00:46:00,1.1,北西,1.6,西北西,5.7,92,0,0,0,0
48,2023-02-13T00:47:00,1.1,北西,1.6,西北西,5.8,92.2,0,0,0,0
49,2023-02-13T00:48:00,1,北西,1.6,西北西,5.8,92.3,0,0,0,0
50,2023-02-13T00:49:00,0.9,北西,1.6,西北西,5.9,92.6,0,0,0,0
51,2023-02-13T00:50:00,0.9,北西,1.6,西北西,6,92.9,0,0,0,0
52,2023-02-13T00:51:00,0.9,北西,1.6,西北西,5.9,92.6,0,0,0,0
53,2023-02-13T00:52:00,0.8,北北西,1.6,西北西,5.9,92.4,0,0,0,0
54,2023-02-13T00:53:00,0.7,北北西,1.6,西北西,5.9,92.2,0,0,0,0
55,2023-02-13T00:54:00,0.6,北北西,1.6,西北西,5.9,92,0,0,0,0
56,2023-02-13T00:55:00,0.5,北北西,1.6,西北西,5.9,91.8,0,0,0,0
57,2023-02-13T00:56:00,0.4,北北西,1.2,西北西,5.9,91.8,0,0,0,0
58,2023-02-13T00:57:00,0.3,北北西,0.9,北,5.9,91.8,0,0,0,0
59,2023-02-13T00:58:00,0.3,北北西,0.9,北,5.9,92,0,0,0,0
60,2023-02-13T00:59:00,0.3,北北西,0.8,北西,5.9,91.9,0,0,0,0
61,2023-02-13T01:00:00,0.3,北西,0.8,北西,5.9,91.8,0,0,0,0
62,2023-02-13T01:01:00,0.3,北西,0.9,北西,5.8,91.7,0,0,0,0
63,2023-02-13T01:02:00,0.4,北西,1,北西,5.8,91.6,0,0,0,0
64,2023-02-13T01:03:00,0.4,北西,1.2,西北西,5.8,91.7,0,0,0,0
65,2023-02-13T01:04:00,0.5,西北西,1.4,西北西,5.8,91.8,0,0,0,0
66,2023-02-13T01:05:00,0.7,西北西,1.5,北西,5.8,91.9,0,0,0,0
67,2023-02-13T01:06:00,0.8,西北西,1.5,北西,5.7,92,0,0,0,0
68,2023-02-13T01:07:00,0.8,西北西,1.5,北西,5.8,92.2,0,0,0,0
69,2023-02-13T01:08:00,0.9,西北西,1.5,北西,5.8,92.4,0,0,0,0
70,2023-02-13T01:09:00,0.9,西北西,1.5,北西,5.8,92.6,0,0,0,0
71,2023-02-13T01:10:00,0.9,西北西,1.5,北西,5.9,92.7,0,0,0,0
72,2023-02-13T01:11:00,1,西北西,1.5,北西,5.9,92.8,0,0,0,0
73,2023-02-13T01:12:00,1,西北西,1.5,北西,6,93,0,0,0,0
74,2023-02-13T01:13:00,1,西北西,1.9,西北西,6,92.9,0,0,0,0
75,2023-02-13T01:14:00,1,西北西,1.9,西北西,6,92.7,0,0,0,0
76,2023-02-13T01:15:00,0.9,西北西,1.9,西北西,6,92.4,0,0,0,0
77,2023-02-13T01:16:00,0.9,西北西,1.9,西北西,6,92.3,0,0,0,0
78,2023-02-13T01:17:00,0.9,西北西,1.9,西北西,5.9,92.2,0,0,0,0
79,2023-02-13T01:18:00,0.9,西北西,2.1,西北西,5.9,92.2,0,0,0,0
80,2023-02-13T01:19:00,1,西北西,2.1,西北西,5.9,92.3,0,0,0,0
81,2023-02-13T01:20:00,1.1,西北西,2.1,西北西,6,92.5,0,0,0,0
82,2023-02-13T01:21:00,1.2,西北西,2.4,西北西,6,92.6,0,0,0,0
83,2023-02-13T01:22:00,1.3,西北西,2.5,西北西,6,92.7,0,0,0,0
84,2023-02-13T01:23:00,1.4,西北西,2.7,西北西,6,92.8,0,0,0,0
85,2023-02-13T01:24:00,1.3,西北西,2.7,西北西,5.9,92.8,0,0,0,0
86,2023-02-13T01:25:00,1.3,西北西,2.7,西北西,5.9,92.7,0,0,0,0
87,2023-02-13T01:26:00,1.4,西北西,2.7,西北西,5.9,92.6,0,0,0,0
88,2023-02-13T01:27:00,1.4,西北西,2.7,西北西,5.9,92.6,0,0,0,0
89,2023-02-13T01:28:00,1.3,北西,2.7,西北西,5.9,92.7,0,0,0,0
90,2023-02-13T01:29:00,1.4,北西,2.7,西北西,5.9,92.7,0,0,0,0
91,2023-02-13T01:30:00,1.3,北西,2.7,西北西,5.9,92.9,0,0,0,0
92,2023-02-13T01:31:00,1.2,北西,2.7,西北西,5.9,92.8,0,0,0,0
93,2023-02-13T01:32:00,1.1,北西,2.7,西北西,5.9,93.1,0,0,0,0
94,2023-02-13T01:33:00,1.1,北西,2.3,西北西,5.9,93.1,0,0,0,0
95,2023-02-13T01:34:00,1.1,西北西,2.3,西北西,5.9,93,0,0,0,0
96,2023-02-13T01:35:00,1.1,西北西,2.3,西北西,5.9,93.1,0,0,0,0
97,2023-02-13T01:36:00,1.1,西北西,2.3,西北西,5.9,93.1,0,0,0,0
98,2023-02-13T01:37:00,1.2,北西,2.3,西北西,5.9,93,0,0,0,0
99,2023-02-13T01:38:00,1.2,北西,2.3,西北西,5.8,93.2,0,0,0,0
100,2023-02-13T01:39:00,1.2,北西,1.8,北北西,5.8,93.2,0,0,0,0
101,2023-02-13T01:40:00,1.2,北西,1.8,北北西,5.7,93.3,0,0,0,0
102,2023-02-13T01:41:00,1.2,北西,1.8,北北西,5.8,93.5,0,0,0,0
103,2023-02-13T01:42:00,1.2,北北西,2.2,北北西,5.8,93.8,0,0,0,0
104,2023-02-13T01:43:00,1.3,北北西,2.2,北北西,5.7,94,0,0,0,0
105,2023-02-13T01:44:00,1.3,北北西,2.2,北北西,5.7,94.2,0,0,0,0
106,2023-02-13T01:45:00,1.4,北,2.2,北北西,5.7,94.3,0,0,0,0
107,2023-02-13T01:46:00,1.4,北,2.2,北北西,5.7,94.6,0,0,0,0
108,2023-02-13T01:47:00,1.4,北北西,2.2,北北西,5.7,94.6,0,0,0,0
109,2023-02-13T01:48:00,1.3,北北西,2.2,北北西,5.6,94.6,0,0,0,0
110,2023-02-13T01:49:00,1.4,北北西,2.2,北北西,5.6,94.8,0,0,0,0
111,2023-02-13T01:50:00,1.3,北北西,2.2,北北西,5.6,95,0,0,0,0
112,2023-02-13T01:51:00,1.4,北北西,2.2,北北西,5.6,95.1,0,0,0,0
113,2023-02-13T01:52:00,1.4,北北西,2.2,北,5.7,95.2,0,0,0,0
114,2023-02-13T01:53:00,1.3,北北西,2,北北西,5.7,95.3,0,0,0,0
115,2023-02-13T01:54:00,1.3,北北西,2,北北西,5.7,95.3,0,0,0,0
116,2023-02-13T01:55:00,1.3,北北西,2,北北西,5.6,95.3,0,0,0,0
117,2023-02-13T01:56:00,1.2,北北西,2,北北西,5.7,95.3,0,0,0,0
118,2023-02-13T01:57:00,1.2,北北西,2,北北西,5.7,95.5,0,0,0,0
119,2023-02-13T01:58:00,1.2,北北西,2,北北西,5.7,95.5,0,0,0,0
120,2023-02-13T01:59:00,1.2,北北西,2,北北西,5.7,95.5,0,0,0,0
121,2023-02-13T02:00:00,1.2,北北西,2,北北西,5.7,95.5,0,0,0,0
122,2023-02-13T02:01:00,1.2,北北西,2.3,北北西,5.7,95.5,0,0,0,0
123,2023-02-13T02:02:00,1.3,北北西,2.3,北北西,5.6,95.5,0,0,0,0
124,2023-02-13T02:03:00,1.3,北北西,2.3,北北西,5.7,95.6,0,0,0,0
125,2023-02-13T02:04:00,1.3,北北西,2.3,北北西,5.7,95.6,0,0,0,0
126,2023-02-13T02:05:00,1.3,北北西,2.3,北北西,5.7,95.6,0,0,0,0
127,2023-02-13T02:06:00,1.3,北北西,2.3,北北西,5.7,95.7,0,0,0,0
128,2023-02-13T02:07:00,1.3,北北西,2.3,北北西,5.6,95.6,0,0,0,0
129,2023-02-13T02:08:00,1.2,北北西,2.3,北北西,5.7,95.6,0,0,0,0
130,2023-02-13T02:09:00,1.2,北北西,2.3,北北西,5.7,95.8,0,0,0,0
131,2023-02-13T02:10:00,1.1,北北西,2.3,北北西,5.7,95.7,0,0,0,0
132,2023-02-13T02:11:00,1,北西,2,北北西,5.7,95.7,0,0,0,0
133,2023-02-13T02:12:00,0.9,北西,2,北北西,5.6,95.6,0,0,0,0
134,2023-02-13T02:13:00,0.8,北西,1.9,北北西,5.7,95.7,0,0,0,0
135,2023-02-13T02:14:00,0.8,北西,1.2,北北西,5.6,95.7,0,0,0,0
136,2023-02-13T02:15:00,0.8,北北西,1.3,北,5.7,95.7,0,0,0,0
137,2023-02-13T02:16:00,0.8,北北西,1.4,北北西,5.7,95.9,0,0,0,0
138,2023-02-13T02:17:00,0.8,北北西,1.7,北北西,5.7,95.9,0,0,0,0
139,2023-02-13T02:18:00,0.9,北北西,1.7,北北西,5.6,95.8,0,0,0,0
140,2023-02-13T02:19:00,0.9,北北西,1.7,北北西,5.6,95.7,0,0,0,0
141,2023-02-13T02:20:00,0.9,北北西,1.7,北北西,5.6,95.8,0,0,0,0
142,2023-02-13T02:21:00,0.9,北北西,1.7,北北西,5.6,95.8,0,0,0,0
143,2023-02-13T02:22:00,0.9,北北西,1.7,北北西,5.6,95.8,0,0,0,0
144,2023-02-13T02:23:00,0.9,北西,1.7,北北西,5.6,95.9,0,0,0,0
145,2023-02-13T02:24:00,0.9,北西,1.7,北北西,5.6,95.9,0,0,0,0
146,2023-02-13T02:25:00,0.9,北西,1.7,北北西,5.6,95.9,0,0,0,0
147,2023-02-13T02:26:00,0.9,北西,1.7,北北西,5.6,95.9,0,0,0,0
148,2023-02-13T02:27:00,0.9,北西,1.4,北西,5.6,95.9,0,0,0,0
149,2023-02-13T02:28:00,0.8,北西,1.4,北西,5.6,96,0,0,0,0
150,2023-02-13T02:29:00,0.8,北西,1.4,北西,5.7,96.1,0.5,0.5,0.5,0.5
151,2023-02-13T02:30:00,0.7,北西,1.4,北西,5.7,96.2,0.5,0.5,0.5,0.5
152,2023-02-13T02:31:00,0.7,北西,1.4,北西,5.7,96.1,0.5,0.5,0.5,0.5
153,2023-02-13T02:32:00,0.7,北北西,1.4,北西,5.7,96.2,0.5,0.5,0.5,0.5
154,2023-02-13T02:33:00,0.7,北北西,1.4,北西,5.7,96.2,0.5,0.5,0.5,0.5
155,2023-02-13T02:34:00,0.6,北,1.4,北西,5.7,96.2,0.5,0.5,0.5,0.5
156,2023-02-13T02:35:00,0.6,北北東,1.3,北西,5.8,96.3,0.5,0.5,0.5,0.5
157,2023-02-13T02:36:00,0.5,北北東,1.2,北西,5.8,96.3,0.5,0.5,0.5,0.5
158,2023-02-13T02:37:00,0.4,北東,1,北北東,5.8,96.4,0.5,0.5,0.5,0.5
159,2023-02-13T02:38:00,0.3,北東,1,北北東,5.8,96.3,0.5,0.5,0.5,0.5
160,2023-02-13T02:39:00,0.3,北東,1,北北東,5.9,96.3,0,0.5,0.5,0.5
161,2023-02-13T02:40:00,0.3,北東,1,北北東,5.8,96.3,0,0.5,0.5,0.5
162,2023-02-13T02:41:00,0.3,北東,0.9,北北東,5.7,96,0,0.5,0.5,0.5
163,2023-02-13T02:42:00,0.3,北東,0.8,東北東,5.7,96.1,0,0.5,0.5,0.5
164,2023-02-13T02:43:00,0.2,静穏,0.7,北,5.7,96.2,0,0.5,0.5,0.5
165,2023-02-13T02:44:00,0.3,北北東,0.9,西北西,5.7,96.2,0,0.5,0.5,0.5
166,2023-02-13T02:45:00,0.3,北,0.9,西北西,5.6,96.1,0,0.5,0.5,0.5
167,2023-02-13T02:46:00,0.3,北,0.9,西北西,5.6,96.1,0,0.5,0.5,0.5
168,2023-02-13T02:47:00,0.4,北北西,0.9,西北西,5.6,96.2,0,0.5,0.5,0.5
169,2023-02-13T02:48:00,0.5,北北西,0.9,西北西,5.6,96.2,0,0.5,0.5,0.5
170,2023-02-13T02:49:00,0.6,北北西,1,北西,5.6,96.3,0,0.5,0.5,0.5
171,2023-02-13T02:50:00,0.6,北西,1.2,北北西,5.6,96.3,0,0.5,0.5,0.5
172,2023-02-13T02:51:00,0.7,北北西,1.6,北,5.7,96.4,0,0.5,0.5,0.5
173,2023-02-13T02:52:00,0.8,北北西,1.6,北,5.7,96.5,0,0.5,0.5,0.5
174,2023-02-13T02:53:00,0.8,北北西,1.6,北,5.7,96.5,0,0.5,0.5,0.5
175,2023-02-13T02:54:00,0.8,北北西,1.6,北,5.7,96.4,0,0.5,0.5,0.5
176,2023-02-13T02:55:00,0.9,北北西,1.6,北,5.7,96.4,0,0.5,0.5,0.5
177,2023-02-13T02:56:00,0.9,北北西,1.6,北,5.6,96.4,0,0.5,0.5,0.5
178,2023-02-13T02:57:00,0.9,北北西,1.6,北,5.7,96.4,0,0.5,0.5,0.5
179,2023-02-13T02:58:00,0.9,北北西,1.6,北,5.6,96.5,0,0.5,0.5,0.5
180,2023-02-13T02:59:00,0.9,北北西,1.6,北,5.7,96.5,0,0.5,0.5,0.5
181,2023-02-13T03:00:00,0.8,北北西,1.6,北,5.7,96.5,0.5,1,1,1
182,2023-02-13T03:01:00,0.8,北北西,1.6,北,5.7,96.6,0.5,1,1,1
183,2023-02-13T03:02:00,0.8,北北西,1.2,北,5.7,96.7,0.5,1,1,1
184,2023-02-13T03:03:00,0.8,北北西,1.6,北北西,5.7,96.7,0.5,1,1,1
185,2023-02-13T03:04:00,0.8,北北西,1.7,北北西,5.7,96.6,0.5,1,1,1
186,2023-02-13T03:05:00,0.9,北北西,1.8,北北西,5.7,96.6,0.5,1,1,1
187,2023-02-13T03:06:00,1,北北西,1.8,北北西,5.7,96.6,0.5,1,1,1
188,2023-02-13T03:07:00,1,北北西,1.8,北北西,5.7,96.6,0.5,1,1,1
189,2023-02-13T03:08:00,1.1,北北西,1.8,北北西,5.7,96.6,0.5,1,1,1
190,2023-02-13T03:09:00,1.1,北北西,1.8,北北西,5.6,96.6,0.5,1,1,1
191,2023-02-13T03:10:00,1.2,北北西,1.8,北北西,5.6,96.6,0,1,1,1
192,2023-02-13T03:11:00,1.3,北北西,2,北西,5.6,96.5,0,1,1,1
193,2023-02-13T03:12:00,1.4,北北西,2,北西,5.5,96.6,0,1,1,1
194,2023-02-13T03:13:00,1.4,北北西,2,北西,5.6,96.6,0,1,1,1
195,2023-02-13T03:14:00,1.4,北北西,2,北西,5.6,96.7,0,1,1,1
196,2023-02-13T03:15:00,1.3,北西,2,北西,5.6,96.7,0,1,1,1
197,2023-02-13T03:16:00,1.2,北西,2,北西,5.6,96.8,0,1,1,1
198,2023-02-13T03:17:00,1.2,北西,2,北西,5.6,96.7,0,1,1,1
199,2023-02-13T03:18:00,1.3,北西,2,北西,5.6,96.7,0,1,1,1
200,2023-02-13T03:19:00,1.3,北西,2,北西,5.6,96.7,0,1,1,1
201,2023-02-13T03:20:00,1.3,北西,2,北西,5.6,96.8,0,1,1,1
202,2023-02-13T03:21:00,1.3,北西,2,北西,5.6,96.8,0,1,1,1
203,2023-02-13T03:22:00,1.3,北西,2,北西,5.6,96.9,0,1,1,1
204,2023-02-13T03:23:00,1.3,北西,2,北西,5.7,96.9,0,1,1,1
205,2023-02-13T03:24:00,1.2,北西,2,北西,5.7,96.9,0,1,1,1
206,2023-02-13T03:25:00,1.2,北西,2,北西,5.7,97,0,1,1,1
207,2023-02-13T03:26:00,1.2,北西,2,北西,5.7,96.9,0,1,1,1
208,2023-02-13T03:27:00,1.1,北西,2,北西,5.7,96.9,0,1,1,1
209,2023-02-13T03:28:00,0.9,北西,2,北西,5.7,97,0,1,1,1
210,2023-02-13T03:29:00,0.8,北西,2,北西,5.7,96.9,0,0.5,1,1
211,2023-02-13T03:30:00,0.7,北西,1.7,北西,5.7,96.9,0,0.5,1,1
212,2023-02-13T03:31:00,0.7,北西,1.6,北,5.7,96.9,0,0.5,1,1
213,2023-02-13T03:32:00,0.7,北西,1.7,北北西,5.7,97,0,0.5,1,1
214,2023-02-13T03:33:00,0.7,北西,1.8,北北西,5.7,96.9,0,0.5,1,1
215,2023-02-13T03:34:00,0.8,北西,1.8,北北西,5.7,97,0,0.5,1,1
216,2023-02-13T03:35:00,0.8,北西,1.8,北北西,5.7,96.9,0,0.5,1,1
217,2023-02-13T03:36:00,0.9,北北西,1.8,北北西,5.7,96.9,0,0.5,1,1
218,2023-02-13T03:37:00,1,北北西,1.8,北北西,5.7,96.9,0,0.5,1,1
219,2023-02-13T03:38:00,1.1,北北西,1.8,北北西,5.7,96.9,0,0.5,1,1
220,2023-02-13T03:39:00,1.2,北北西,1.8,北北西,5.7,96.9,0,0.5,1,1
221,2023-02-13T03:40:00,1.3,北北西,2,北北西,5.7,96.9,0,0.5,1,1
222,2023-02-13T03:41:00,1.3,北北西,2,北北西,5.7,97,0,0.5,1,1
223,2023-02-13T03:42:00,1.3,北西,2,北北西,5.8,97.1,0,0.5,1,1
224,2023-02-13T03:43:00,1.2,北西,2,北北西,5.8,97.1,0,0.5,1,1
225,2023-02-13T03:44:00,1.2,北西,2,北北西,5.7,97,0,0.5,1,1
226,2023-02-13T03:45:00,1.2,北北西,2,北北西,5.7,97,0,0.5,1,1
227,2023-02-13T03:46:00,1.1,北北西,2,北北西,5.7,97,0,0.5,1,1
228,2023-02-13T03:47:00,1.1,北北西,2,北北西,5.7,97,0,0.5,1,1
229,2023-02-13T03:48:00,1,北北西,2,北北西,5.7,97,0,0.5,1,1
230,2023-02-13T03:49:00,1,北西,2,北北西,5.8,97,0,0.5,1,1
231,2023-02-13T03:50:00,0.9,北西,1.9,北北西,5.7,97,0,0.5,1,1
232,2023-02-13T03:51:00,0.8,北西,1.4,北北西,5.7,97,0,0.5,1,1
233,2023-02-13T03:52:00,0.9,北西,1.4,北北西,5.7,97,0,0.5,1,1
234,2023-02-13T03:53:00,0.9,北西,1.4,北西,5.7,97,0,0.5,1,1
235,2023-02-13T03:54:00,0.9,西北西,1.4,北西,5.7,97,0,0.5,1,1
236,2023-02-13T03:55:00,0.9,西北西,1.4,北西,5.7,97,0,0.5,1,1
237,2023-02-13T03:56:00,1,西北西,1.4,北西,5.7,97.1,0,0.5,1,1
238,2023-02-13T03:57:00,1,西北西,1.4,北西,5.7,97.1,0,0.5,1,1
239,2023-02-13T03:58:00,1,西北西,1.4,北西,5.7,97.1,0,0.5,1,1
240,2023-02-13T03:59:00,1,西北西,1.4,北西,5.7,97.1,0,0.5,1,1
241,2023-02-13T04:00:00,1.1,西北西,1.4,北西,5.7,97.1,0,0,1,1
242,2023-02-13T04:01:00,1.1,西北西,1.5,西北西,5.7,97.1,0,0,1,1
243,2023-02-13T04:02:00,1.1,西北西,1.6,西北西,5.7,97.1,0,0,1,1
244,2023-02-13T04:03:00,1.2,西北西,1.7,西,5.7,97.1,0,0,1,1
245,2023-02-13T04:04:00,1.2,西北西,1.7,西,5.7,97.1,0,0,1,1
246,2023-02-13T04:05:00,1.2,西北西,1.7,西,5.7,97.1,0,0,1,1
247,2023-02-13T04:06:00,1.2,西北西,1.7,西,5.7,97.1,0,0,1,1
248,2023-02-13T04:07:00,1.2,西北西,1.7,西,5.7,97.1,0,0,1,1
249,2023-02-13T04:08:00,1.2,西北西,1.7,西,5.7,97.1,0,0,1,1
250,2023-02-13T04:09:00,1.2,西北西,1.7,西,5.7,97.1,0,0,1,1
251,2023-02-13T04:10:00,1.1,西北西,1.7,西,5.7,97.1,0,0,1,1
252,2023-02-13T04:11:00,1.1,西北西,1.7,西,5.7,97.1,0,0,1,1
253,2023-02-13T04:12:00,0.9,西北西,1.7,西,5.8,97.2,0,0,1,1
254,2023-02-13T04:13:00,0.9,西北西,1.6,西北西,5.8,97.2,0,0,1,1
255,2023-02-13T04:14:00,0.8,西北西,1.6,西北西,5.8,97.2,0,0,1,1
256,2023-02-13T04:15:00,0.7,西北西,1.4,西北西,5.8,97.2,0,0,1,1
257,2023-02-13T04:16:00,0.6,西北西,1.2,西北西,5.8,97.2,0,0,1,1
258,2023-02-13T04:17:00,0.6,西北西,1.2,西北西,5.7,97.2,0,0,1,1
259,2023-02-13T04:18:00,0.6,西北西,1.2,西北西,5.8,97.2,0,0,1,1
260,2023-02-13T04:19:00,0.6,西北西,1.2,西北西,5.8,97.2,0,0,1,1
261,2023-02-13T04:20:00,0.6,西北西,1,西北西,5.8,97.2,0,0,1,1
262,2023-02-13T04:21:00,0.6,西北西,1,西北西,5.8,97.2,0,0,1,1
263,2023-02-13T04:22:00,0.6,西北西,1,西北西,5.8,97.2,0,0,1,1
264,2023-02-13T04:23:00,0.5,北西,1,西北西,5.8,97.2,0,0,1,1
265,2023-02-13T04:24:00,0.6,北西,1,西北西,5.8,97.2,0,0,1,1
266,2023-02-13T04:25:00,0.6,北西,1,西北西,5.8,97.2,0,0,1,1
267,2023-02-13T04:26:00,0.6,北西,1.2,北北西,5.9,97.3,0,0,1,1
268,2023-02-13T04:27:00,0.6,北西,1.2,北北西,5.9,97.3,0,0,1,1
269,2023-02-13T04:28:00,0.6,北西,1.2,北北西,6,97.3,0,0,1,1
270,2023-02-13T04:29:00,0.5,北西,1.2,北北西,6,97.4,0,0,1,1
271,2023-02-13T04:30:00,0.5,北西,1.2,北北西,6,97.3,0,0,1,1
272,2023-02-13T04:31:00,0.5,北西,1.2,北北西,6,97.3,0,0,1,1
273,2023-02-13T04:32:00,0.5,北西,1.2,北北西,5.9,97.2,0,0,1,1
274,2023-02-13T04:33:00,0.5,北西,1.2,北北西,5.9,97.2,0,0,1,1
275,2023-02-13T04:34:00,0.4,北西,1.2,北北西,5.9,97.2,0,0,1,1
276,2023-02-13T04:35:00,0.3,北西,1.2,北北西,6,97.3,0,0,1,1
277,2023-02-13T04:36:00,0.3,北西,0.9,北北西,6,97.3,0,0,1,1
278,2023-02-13T04:37:00,0.3,北北西,0.9,北北西,6.1,97.4,0,0,1,1
279,2023-02-13T04:38:00,0.3,北北西,0.9,北北西,6.1,97.4,0,0,1,1
280,2023-02-13T04:39:00,0.3,北北西,0.9,北北西,6.1,97.3,0,0,1,1
281,2023-02-13T04:40:00,0.3,北北西,0.8,北,6.1,97.3,0,0,1,1
282,2023-02-13T04:41:00,0.2,静穏,0.8,北,6,97.3,0,0,1,1
283,2023-02-13T04:42:00,0.2,静穏,0.8,北,5.9,97.1,0,0,1,1
284,2023-02-13T04:43:00,0.2,静穏,0.8,北,5.9,97.1,0,0,1,1
285,2023-02-13T04:44:00,0.2,静穏,0.8,北,5.9,97.1,0,0,1,1
286,2023-02-13T04:45:00,0.2,静穏,0.8,北,5.9,97.1,0,0,1,1
287,2023-02-13T04:46:00,0.2,静穏,0.8,北,5.9,97.1,0,0,1,1
288,2023-02-13T04:47:00,0.2,静穏,0.8,北,5.9,97.1,0,0,1,1
289,2023-02-13T04:48:00,0.2,静穏,0.9,西北西,5.9,97.1,0,0,1,1
290,2023-02-13T04:49:00,0.3,西北西,1,西北西,5.9,97.1,0,0,1,1
291,2023-02-13T04:50:00,0.4,西北西,1.1,西北西,5.9,97.1,0,0,1,1
292,2023-02-13T04:51:00,0.5,西北西,1.1,西北西,5.9,97.2,0,0,1,1
293,2023-02-13T04:52:00,0.6,西北西,1.3,西北西,5.9,97.2,0,0,1,1
294,2023-02-13T04:53:00,0.7,西北西,1.3,西北西,5.9,97.2,0,0,1,1
295,2023-02-13T04:54:00,0.8,西北西,1.3,西北西,5.9,97.2,0,0,1,1
296,2023-02-13T04:55:00,0.8,西北西,1.3,西北西,5.9,97.2,0,0,1,1
297,2023-02-13T04:56:00,0.9,西北西,1.3,西北西,5.9,97.2,0,0,1,1
298,2023-02-13T04:57:00,0.9,西北西,1.3,西北西,5.9,97.1,0,0,1,1
299,2023-02-13T04:58:00,0.9,西北西,1.6,西,5.9,97.1,0,0,1,1
300,2023-02-13T04:59:00,1,西北西,1.6,西,5.9,97.1,0,0,1,1
301,2023-02-13T05:00:00,1,西北西,1.6,西,5.9,97.1,0,0,1,1
302,2023-02-13T05:01:00,1,西北西,1.6,西,5.9,97.1,0,0,1,1
303,2023-02-13T05:02:00,1,西北西,1.6,西,5.9,97.1,0,0,1,1
304,2023-02-13T05:03:00,0.9,西北西,1.6,西,5.9,97.1,0,0,1,1
305,2023-02-13T05:04:00,0.9,西北西,1.6,西,5.8,97.1,0,0,1,1
306,2023-02-13T05:05:00,0.9,西,1.6,西,5.8,97.1,0,0,1,1
307,2023-02-13T05:06:00,0.8,西,1.6,西,5.8,97.1,0,0,1,1
308,2023-02-13T05:07:00,0.7,西,1.6,西,5.9,97.2,0,0,1,1
309,2023-02-13T05:08:00,0.7,西,1.6,西,5.9,97.2,0,0,1,1
310,2023-02-13T05:09:00,0.6,西,1.3,西,5.9,97.2,0,0,1,1
311,2023-02-13T05:10:00,0.5,西北西,1.3,西,5.9,97.2,0,0,1,1
312,2023-02-13T05:11:00,0.4,西北西,1,西,5.9,97.2,0,0,1,1
313,2023-02-13T05:12:00,0.4,西北西,1,西,5.9,97.2,0,0,1,1
314,2023-02-13T05:13:00,0.4,西北西,0.8,西,5.9,97.2,0,0,1,1
315,2023-02-13T05:14:00,0.4,西北西,0.9,西北西,5.9,97.2,0,0,1,1
316,2023-02-13T05:15:00,0.4,西北西,0.9,西北西,5.9,97.2,0,0,1,1
317,2023-02-13T05:16:00,0.5,西北西,0.9,西北西,5.9,97.2,0,0,1,1
318,2023-02-13T05:17:00,0.5,西北西,0.9,西北西,5.9,97.2,0,0,1,1
319,2023-02-13T05:18:00,0.6,西北西,1,西北西,5.9,97.2,0,0,1,1
320,2023-02-13T05:19:00,0.6,西北西,1.1,西北西,5.9,97.2,0,0,1,1
321,2023-02-13T05:20:00,0.7,西北西,1.1,西北西,5.9,97.2,0,0,1,1
322,2023-02-13T05:21:00,0.7,西北西,1.3,北北西,5.9,97.2,0,0,1,1
323,2023-02-13T05:22:00,0.8,西北西,1.3,北北西,5.9,97.2,0,0,1,1
324,2023-02-13T05:23:00,0.9,西北西,1.3,北北西,5.9,97.2,0,0,1,1
325,2023-02-13T05:24:00,0.9,北西,1.3,北北西,5.9,97.2,0,0,1,1
326,2023-02-13T05:25:00,0.9,北西,1.3,北北西,5.9,97.2,0,0,1,1
327,2023-02-13T05:26:00,0.9,北西,1.3,北北西,5.9,97.3,0,0,1,1
328,2023-02-13T05:27:00,0.9,北西,1.3,北北西,6,97.3,0,0,1,1
329,2023-02-13T05:28:00,0.9,北西,1.5,北西,6,97.3,0,0,1,1
330,2023-02-13T05:29:00,1,北西,1.5,北西,6,97.3,0,0,1,1
331,2023-02-13T05:30:00,1,北西,1.5,北西,6,97.3,0,0,1,1
332,2023-02-13T05:31:00,1,北西,1.5,北西,6,97.3,0,0,1,1
333,2023-02-13T05:32:00,1,北西,1.5,北西,6,97.2,0,0,1,1
334,2023-02-13T05:33:00,0.9,西北西,1.5,北西,5.9,97.2,0,0,1,1
335,2023-02-13T05:34:00,0.9,西北西,1.5,北西,5.9,97.2,0,0,1,1
336,2023-02-13T05:35:00,0.8,西北西,1.5,北西,5.9,97.2,0,0,1,1
337,2023-02-13T05:36:00,0.8,西北西,1.5,北西,5.9,97.2,0,0,1,1
338,2023-02-13T05:37:00,0.7,西北西,1.5,北西,5.9,97.2,0,0,1,1
339,2023-02-13T05:38:00,0.7,西北西,1.4,北西,6,97.3,0,0,1,1
340,2023-02-13T05:39:00,0.6,西北西,1.4,北西,6,97.3,0,0,1,1
341,2023-02-13T05:40:00,0.5,西,1.3,西北西,6,97.3,0,0,1,1
342,2023-02-13T05:41:00,0.5,西,1.3,西北西,6,97.2,0,0,1,1
343,2023-02-13T05:42:00,0.5,西,1.1,西,6,97.2,0,0,1,1
344,2023-02-13T05:43:00,0.5,西北西,1.3,北西,5.9,97.2,0,0,1,1
345,2023-02-13T05:44:00,0.5,西北西,1.4,北西,6,97.3,0,0,1,1
346,2023-02-13T05:45:00,0.6,西北西,1.6,北西,6,97.3,0,0,1,1
347,2023-02-13T05:46:00,0.8,西北西,2.7,西北西,6,97.3,0,0,1,1
348,2023-02-13T05:47:00,1,西北西,3.1,北西,6,97.2,0,0,1,1
349,2023-02-13T05:48:00,1.2,西北西,3.1,北西,6,97.2,0,0,1,1
350,2023-02-13T05:49:00,1.4,西北西,3.1,北西,6,97.2,0,0,1,1
351,2023-02-13T05:50:00,1.4,西北西,3.1,北西,6,97.2,0,0,1,1
352,2023-02-13T05:51:00,1.5,西北西,3.1,北西,6.1,97.3,0,0,1,1
353,2023-02-13T05:52:00,1.5,西北西,3.1,北西,6.1,97.3,0,0,1,1
354,2023-02-13T05:53:00,1.5,西北西,3.1,北西,6.1,97.3,0,0,1,1
355,2023-02-13T05:54:00,1.6,西北西,3.1,北西,6,97.3,0,0,1,1
356,2023-02-13T05:55:00,1.5,西北西,3.1,北西,6,97.2,0,0,1,1
357,2023-02-13T05:56:00,1.4,西北西,3.1,北西,6,97.2,0,0,1,1
358,2023-02-13T05:57:00,1.3,北西,3,西北西,6,97.2,0,0,1,1
359,2023-02-13T05:58:00,1.1,北西,2.5,西,6,97.2,0,0,1,1
360,2023-02-13T05:59:00,1,北西,2.1,西,6,97.2,0,0,1,1
361,2023-02-13T06:00:00,0.9,北西,1.9,北西,6,97.2,0,0,1,1
362,2023-02-13T06:01:00,,"",,"",,,,,,
363,2023-02-13T06:02:00,0.8,北西,1.3,北西,6,97.2,0,0,1,1
364,2023-02-13T06:03:00,0.8,北西,1.1,北西,6,97.2,0,0,1,1
365,2023-02-13T06:04:00,0.8,北西,1.1,北西,6,97.2,0,0,1,1
366,2023-02-13T06:05:00,0.7,北西,1.1,北西,6,97.3,0,0,1,1
367,2023-02-13T06:06:00,0.7,北西,1.1,北西,6,97.2,0,0,1,1
368,2023-02-13T06:07:00,0.7,北西,1.1,北西,6,97.2,0,0,1,1
369,2023-02-13T06:08:00,0.8,北西,1.1,北西,6,97.2,0,0,1,1
370,2023-02-13T06:09:00,0.8,北西,1.1,北西,6,97.2,0,0,1,1
371,2023-02-13T06:10:00,0.8,北西,1.4,北西,6,97.2,0,0,1,1
372,2023-02-13T06:11:00,0.8,北西,1.4,北西,6,97.2,0,0,1,1
373,2023-02-13T06:12:00,0.9,北西,1.4,北西,6,97.2,0,0,1,1
374,2023-02-13T06:13:00,0.9,北西,1.4,北西,6,97.2,0,0,1,1
375,2023-02-13T06:14:00,0.9,北西,1.4,北西,6,97.2,0,0,1,1
376,2023-02-13T06:15:00,0.9,北西,1.4,北西,5.9,97.2,0,0,1,1
377,2023-02-13T06:16:00,1,北西,1.4,北西,5.9,97.1,0,0,1,1
378,2023-02-13T06:17:00,1,北西,1.4,北西,5.9,97.2,0,0,1,1
379,2023-02-13T06:18:00,1,北西,1.4,北西,5.9,97.2,0,0,1,1
380,2023-02-13T06:19:00,1,北西,1.4,北西,6,97.2,0,0,1,1
381,2023-02-13T06:20:00,1,北西,1.4,西北西,5.9,97.2,0,0,1,1
382,2023-02-13T06:21:00,0.9,北西,1.4,北北西,5.9,97.2,0,0,1,1
383,2023-02-13T06:22:00,1,北西,1.4,北北西,5.9,97.2,0,0,1,1
384,2023-02-13T06:23:00,1,北西,1.5,北西,5.9,97.2,0,0,1,1
385,2023-02-13T06:24:00,1,北西,1.5,北西,5.9,97.2,0,0,1,1
386,2023-02-13T06:25:00,1,北西,1.5,北西,5.9,97.2,0,0,1,1
387,2023-02-13T06:26:00,1,北西,1.5,北西,5.9,97.3,0,0,1,1
388,2023-02-13T06:27:00,1,北西,1.5,北西,5.9,97.3,0,0,1,1
389,2023-02-13T06:28:00,1,北西,1.5,北西,6,97.3,0,0,1,1
390,2023-02-13T06:29:00,1,北西,1.5,北西,6.1,97.4,0,0,1,1
391,2023-02-13T06:30:00,1,北北西,1.5,北西,6.2,97.4,0,0,1,1
392,2023-02-13T06:31:00,1,北北西,1.5,北西,6.1,97.4,0,0,1,1
393,2023-02-13T06:32:00,1,北北西,1.5,北西,6.1,97.4,0,0,1,1
394,2023-02-13T06:33:00,0.9,北北西,1.4,北西,6.1,97.3,0,0,1,1
395,2023-02-13T06:34:00,0.9,北北西,1.4,北西,6.2,97.4,0,0,1,1
396,2023-02-13T06:35:00,0.9,北,1.6,北北西,6.2,97.4,0,0,1,1
397,2023-02-13T06:36:00,0.9,北,1.6,北北西,6.2,97.4,0,0,1,1
398,2023-02-13T06:37:00,0.8,北,1.6,北北西,6.2,97.4,0,0,1,1
399,2023-02-13T06:38:00,0.9,北,1.6,北北西,6.1,97.3,0,0,1,1
400,2023-02-13T06:39:00,0.9,北,1.6,北北西,6.1,97.3,0,0,1,1
401,2023-02-13T06:40:00,1,北北西,1.6,北北西,6.1,97.3,0,0,1,1
402,2023-02-13T06:41:00,1,北北西,1.6,北北西,6.1,97.3,0,0,1,1
403,2023-02-13T06:42:00,1,北北西,1.6,北北西,6,97.3,0,0,1,1
404,2023-02-13T06:43:00,1.1,北北西,1.6,北北西,6,97.2,0,0,1,1
405,2023-02-13T06:44:00,1,北北西,1.6,北北西,6,97.2,0,0,1,1
406,2023-02-13T06:45:00,1,北北西,1.6,北西,6,97.3,0,0,1,1
407,2023-02-13T06:46:00,1,北北西,1.6,北西,6.1,97.3,0,0,1,1
408,2023-02-13T06:47:00,1,北北西,1.6,北西,6.1,97.4,0,0,1,1
409,2023-02-13T06:48:00,1,北北西,1.6,北西,6.1,97.4,0,0,1,1
410,2023-02-13T06:49:00,1,北北西,1.6,北西,6.1,97.4,0,0,1,1
411,2023-02-13T06:50:00,1,北北西,1.6,北西,6.1,97.3,0,0,1,1
412,2023-02-13T06:51:00,0.9,北北西,1.6,北,6.1,97.3,0,0,1,1
413,2023-02-13T06:52:00,0.9,北北西,1.6,北,6.1,97.3,0,0,1,1
414,2023-02-13T06:53:00,0.9,北北西,1.6,北,6.1,97.3,0,0,1,1
415,2023-02-13T06:54:00,0.9,北北西,1.6,北,6.1,97.3,0,0,1,1
416,2023-02-13T06:55:00,0.9,北北西,1.6,北,6.1,97.3,0,0,1,1
417,2023-02-13T06:56:00,1,北西,1.6,北,6,97.3,0,0,1,1
418,2023-02-13T06:57:00,1,北西,1.6,北,6.1,97.3,0,0,1,1
419,2023-02-13T06:58:00,1,北西,1.6,北,6,97.3,0,0,1,1
420,2023-02-13T06:59:00,1,北西,1.6,北,6,97.3,0,0,1,1
421,2023-02-13T07:00:00,1,西北西,1.5,北西,6,97.3,0,0,1,1
422,2023-02-13T07:01:00,1.1,西北西,1.5,北西,6,97.3,0,0,1,1
423,2023-02-13T07:02:00,1.1,西北西,1.5,北西,6.1,97.3,0,0,1,1
424,2023-02-13T07:03:00,1.1,西北西,1.5,北西,6.1,97.4,0,0,1,1
425,2023-02-13T07:04:00,1.2,西北西,1.6,西北西,6.1,97.4,0,0,1,1
426,2023-02-13T07:05:00,1.2,西北西,1.6,西北西,6.1,97.4,0,0,1,1
427,2023-02-13T07:06:00,1.2,西北西,1.6,西北西,6.1,97.4,0,0,1,1
428,2023-02-13T07:07:00,1.2,西北西,1.8,西北西,6.1,97.4,0,0,1,1
429,2023-02-13T07:08:00,1.2,西北西,1.8,西北西,6.1,97.3,0,0,1,1
430,2023-02-13T07:09:00,1.2,西北西,1.8,西北西,6.1,97.3,0,0,1,1
431,2023-02-13T07:10:00,1.2,西北西,1.8,西北西,6.1,97.3,0,0,1,1
432,2023-02-13T07:11:00,1.2,西北西,1.8,西北西,6.1,97.3,0,0,1,1